Year,Month,Day,Hour,Minute,Value (Times are PST for temperature in C)
2015,07,04,00,00,15.10
2015,07,04,00,01,15.10
2015,07,04,00,02,15.10
2015,07,04,00,03,15.10
2015,07,04,00,04,15.00
2015,07,04,00,05,15.00
2015,07,04,00,06,15.00
2015,07,04,00,07,15.00
2015,07,04,00,08,14.90
2015,07,04,00,09,14.90
2015,07,04,00,10,14.90
2015,07,04,00,11,14.90
2015,07,04,00,12,14.90
2015,07,04,00,13,14.90
2015,07,04,00,14,14.90
2015,07,04,00,15,14.90
2015,07,04,00,16,14.90
2015,07,04,00,17,14.80
2015,07,04,00,18,14.80
2015,07,04,00,19,14.80
2015,07,04,00,20,14.80
2015,07,04,00,21,14.80
2015,07,04,00,22,14.80
2015,07,04,00,23,14.80
2015,07,04,00,24,14.80
2015,07,04,00,25,14.80
2015,07,04,00,26,14.80
2015,07,04,00,27,14.80
2015,07,04,00,28,14.80
2015,07,04,00,29,14.80
2015,07,04,00,30,14.80
2015,07,04,00,31,14.80
2015,07,04,00,32,14.80
2015,07,04,00,33,14.80
2015,07,04,00,34,14.80
2015,07,04,00,35,14.80
2015,07,04,00,36,14.80
2015,07,04,00,37,14.80
2015,07,04,00,38,14.90
2015,07,04,00,39,14.90
2015,07,04,00,40,14.90
2015,07,04,00,41,14.90
2015,07,04,00,42,14.90
2015,07,04,00,43,14.90
2015,07,04,00,44,14.90
2015,07,04,00,45,14.90
2015,07,04,00,46,14.90
2015,07,04,00,47,14.90
2015,07,04,00,48,14.90
2015,07,04,00,49,14.90
2015,07,04,00,50,14.90
2015,07,04,00,51,14.90
2015,07,04,00,52,14.90
2015,07,04,00,53,14.90
2015,07,04,00,54,14.80
2015,07,04,00,55,14.80
2015,07,04,00,56,14.80
2015,07,04,00,57,14.80
2015,07,04,00,58,14.80
2015,07,04,00,59,14.80
2015,07,04,01,00,14.80
2015,07,04,01,01,14.80
2015,07,04,01,02,14.80
2015,07,04,01,03,14.70
2015,07,04,01,04,14.70
2015,07,04,01,05,14.70
2015,07,04,01,06,14.70
2015,07,04,01,07,14.70
2015,07,04,01,08,14.70
2015,07,04,01,09,14.60
2015,07,04,01,10,14.60
2015,07,04,01,11,14.60
2015,07,04,01,12,14.60
2015,07,04,01,13,14.60
2015,07,04,01,14,14.60
2015,07,04,01,15,14.60
2015,07,04,01,16,14.60
2015,07,04,01,17,14.60
2015,07,04,01,18,14.60
2015,07,04,01,19,14.60
2015,07,04,01,20,14.60
2015,07,04,01,21,14.60
2015,07,04,01,22,14.60
2015,07,04,01,23,14.60
2015,07,04,01,24,14.60
2015,07,04,01,25,14.60
2015,07,04,01,26,14.60
2015,07,04,01,27,14.70
2015,07,04,01,28,14.70
2015,07,04,01,29,14.70
2015,07,04,01,30,14.70
2015,07,04,01,31,14.70
2015,07,04,01,32,14.70
2015,07,04,01,33,14.70
2015,07,04,01,34,14.70
2015,07,04,01,35,14.70
2015,07,04,01,36,14.70
2015,07,04,01,37,14.70
2015,07,04,01,38,14.70
2015,07,04,01,39,14.60
2015,07,04,01,40,14.60
2015,07,04,01,41,14.60
2015,07,04,01,42,14.60
2015,07,04,01,43,14.50
2015,07,04,01,44,14.50
2015,07,04,01,45,14.40
2015,07,04,01,46,14.40
2015,07,04,01,47,14.40
2015,07,04,01,48,14.30
2015,07,04,01,49,14.30
2015,07,04,01,50,14.30
2015,07,04,01,51,14.20
2015,07,04,01,52,14.20
2015,07,04,01,53,14.20
2015,07,04,01,54,14.10
2015,07,04,01,55,14.10
2015,07,04,01,56,14.00
2015,07,04,01,57,14.00
2015,07,04,01,58,14.00
2015,07,04,01,59,13.90
2015,07,04,02,00,13.90
2015,07,04,02,01,13.90
2015,07,04,02,02,13.90
2015,07,04,02,03,13.80
2015,07,04,02,04,13.80
2015,07,04,02,05,13.80
2015,07,04,02,06,13.80
2015,07,04,02,07,13.80
2015,07,04,02,08,13.80
2015,07,04,02,09,13.70
2015,07,04,02,10,13.70
2015,07,04,02,11,13.70
2015,07,04,02,12,13.70
2015,07,04,02,13,13.70
2015,07,04,02,14,13.70
2015,07,04,02,15,13.70
2015,07,04,02,16,13.70
2015,07,04,02,17,13.70
2015,07,04,02,18,13.70
2015,07,04,02,19,13.70
2015,07,04,02,20,13.70
2015,07,04,02,21,13.70
2015,07,04,02,22,13.70
2015,07,04,02,23,13.60
2015,07,04,02,24,13.60
2015,07,04,02,25,13.70
2015,07,04,02,26,13.70
2015,07,04,02,27,13.70
2015,07,04,02,28,13.70
2015,07,04,02,29,13.70
2015,07,04,02,30,13.70
2015,07,04,02,31,13.70
2015,07,04,02,32,13.70
2015,07,04,02,33,13.70
2015,07,04,02,34,13.70
2015,07,04,02,35,13.70
2015,07,04,02,36,13.80
2015,07,04,02,37,13.80
2015,07,04,02,38,13.80
2015,07,04,02,39,13.80
2015,07,04,02,40,13.80
2015,07,04,02,41,13.80
2015,07,04,02,42,13.80
2015,07,04,02,43,13.80
2015,07,04,02,44,13.80
2015,07,04,02,45,13.80
2015,07,04,02,46,13.80
2015,07,04,02,47,13.80
2015,07,04,02,48,13.80
2015,07,04,02,49,13.90
2015,07,04,02,50,13.90
2015,07,04,02,51,13.90
2015,07,04,02,52,13.90
2015,07,04,02,53,13.90
2015,07,04,02,54,13.90
2015,07,04,02,55,13.90
2015,07,04,02,56,13.90
2015,07,04,02,57,13.90
2015,07,04,02,58,13.90
2015,07,04,02,59,14.00
2015,07,04,03,00,14.00
2015,07,04,03,01,14.00
2015,07,04,03,02,14.00
2015,07,04,03,03,14.00
2015,07,04,03,04,14.10
2015,07,04,03,05,14.10
2015,07,04,03,06,14.10
2015,07,04,03,07,14.10
2015,07,04,03,08,14.10
2015,07,04,03,09,14.10
2015,07,04,03,10,14.10
2015,07,04,03,11,14.10
2015,07,04,03,12,14.10
2015,07,04,03,13,14.10
2015,07,04,03,14,14.10
2015,07,04,03,15,14.20
2015,07,04,03,16,14.20
2015,07,04,03,17,14.20
2015,07,04,03,18,14.20
2015,07,04,03,19,14.20
2015,07,04,03,20,14.20
2015,07,04,03,21,14.20
2015,07,04,03,22,14.20
2015,07,04,03,23,14.20
2015,07,04,03,24,14.30
2015,07,04,03,25,14.30
2015,07,04,03,26,14.30
2015,07,04,03,27,14.30
2015,07,04,03,28,14.30
2015,07,04,03,29,14.30
2015,07,04,03,30,14.40
2015,07,04,03,31,14.40
2015,07,04,03,32,14.40
2015,07,04,03,33,14.40
2015,07,04,03,34,14.40
2015,07,04,03,35,14.40
2015,07,04,03,36,14.40
2015,07,04,03,37,14.50
2015,07,04,03,38,14.50
2015,07,04,03,39,14.50
2015,07,04,03,40,14.50
2015,07,04,03,41,14.50
2015,07,04,03,42,14.50
2015,07,04,03,43,14.50
2015,07,04,03,44,14.60
2015,07,04,03,45,14.60
2015,07,04,03,46,14.60
2015,07,04,03,47,14.60
2015,07,04,03,48,14.60
2015,07,04,03,49,14.60
2015,07,04,03,50,14.60
2015,07,04,03,51,14.60
2015,07,04,03,52,14.60
2015,07,04,03,53,14.60
2015,07,04,03,54,14.60
2015,07,04,03,55,14.60
2015,07,04,03,56,14.60
2015,07,04,03,57,14.60
2015,07,04,03,58,14.60
2015,07,04,03,59,14.60
2015,07,04,04,00,14.60
2015,07,04,04,01,14.60
2015,07,04,04,02,14.60
2015,07,04,04,03,14.60
2015,07,04,04,04,14.60
2015,07,04,04,05,14.60
2015,07,04,04,06,14.60
2015,07,04,04,07,14.60
2015,07,04,04,08,14.50
2015,07,04,04,09,14.50
2015,07,04,04,10,14.50
2015,07,04,04,11,14.40
2015,07,04,04,12,14.40
2015,07,04,04,13,14.40
2015,07,04,04,14,14.30
2015,07,04,04,15,14.30
2015,07,04,04,16,14.30
2015,07,04,04,17,14.30
2015,07,04,04,18,14.20
2015,07,04,04,19,14.20
2015,07,04,04,20,14.20
2015,07,04,04,21,14.10
2015,07,04,04,22,14.10
2015,07,04,04,23,14.10
2015,07,04,04,24,14.10
2015,07,04,04,25,14.00
2015,07,04,04,26,14.00
2015,07,04,04,27,13.90
2015,07,04,04,28,13.90
2015,07,04,04,29,13.90
2015,07,04,04,30,13.90
2015,07,04,04,31,13.80
2015,07,04,04,32,13.80
2015,07,04,04,33,13.80
2015,07,04,04,34,13.80
2015,07,04,04,35,13.70
2015,07,04,04,36,13.70
2015,07,04,04,37,13.70
2015,07,04,04,38,13.70
2015,07,04,04,39,13.60
2015,07,04,04,40,13.60
2015,07,04,04,41,13.60
2015,07,04,04,42,13.60
2015,07,04,04,43,13.50
2015,07,04,04,44,13.50
2015,07,04,04,45,13.50
2015,07,04,04,46,13.40
2015,07,04,04,47,13.40
2015,07,04,04,48,13.40
2015,07,04,04,49,13.40
2015,07,04,04,50,13.30
2015,07,04,04,51,13.30
2015,07,04,04,52,13.30
2015,07,04,04,53,13.30
2015,07,04,04,54,13.30
2015,07,04,04,55,13.30
2015,07,04,04,56,13.20
2015,07,04,04,57,13.20
2015,07,04,04,58,13.20
2015,07,04,04,59,13.20
2015,07,04,05,00,13.20
2015,07,04,05,01,13.20
2015,07,04,05,02,13.20
2015,07,04,05,03,13.20
2015,07,04,05,04,13.10
2015,07,04,05,05,13.10
2015,07,04,05,06,13.10
2015,07,04,05,07,13.10
2015,07,04,05,08,13.10
2015,07,04,05,09,13.10
2015,07,04,05,10,13.10
2015,07,04,05,11,13.00
2015,07,04,05,12,13.00
2015,07,04,05,13,13.00
2015,07,04,05,14,13.00
2015,07,04,05,15,13.00
2015,07,04,05,16,13.00
2015,07,04,05,17,12.90
2015,07,04,05,18,12.90
2015,07,04,05,19,12.90
2015,07,04,05,20,12.90
2015,07,04,05,21,12.90
2015,07,04,05,22,12.90
2015,07,04,05,23,12.90
2015,07,04,05,24,12.90
2015,07,04,05,25,12.90
2015,07,04,05,26,12.90
2015,07,04,05,27,12.80
2015,07,04,05,28,12.80
2015,07,04,05,29,12.80
2015,07,04,05,30,12.80
2015,07,04,05,31,12.80
2015,07,04,05,32,12.80
2015,07,04,05,33,12.80
2015,07,04,05,34,12.80
2015,07,04,05,35,12.80
2015,07,04,05,36,12.80
2015,07,04,05,37,12.80
2015,07,04,05,38,12.80
2015,07,04,05,39,12.80
2015,07,04,05,40,12.80
2015,07,04,05,41,12.80
2015,07,04,05,42,12.80
2015,07,04,05,43,12.80
2015,07,04,05,44,12.80
2015,07,04,05,45,12.80
2015,07,04,05,46,12.80
2015,07,04,05,47,12.80
2015,07,04,05,48,12.80
2015,07,04,05,49,12.80
2015,07,04,05,50,12.80
2015,07,04,05,51,12.70
2015,07,04,05,52,12.70
2015,07,04,05,53,12.70
2015,07,04,05,54,12.70
2015,07,04,05,55,12.70
2015,07,04,05,56,12.70
2015,07,04,05,57,12.70
2015,07,04,05,58,12.70
2015,07,04,05,59,12.70
2015,07,04,06,00,12.70
2015,07,04,06,01,12.70
2015,07,04,06,02,12.70
2015,07,04,06,03,12.70
2015,07,04,06,04,12.70
2015,07,04,06,05,12.70
2015,07,04,06,06,12.70
2015,07,04,06,07,12.70
2015,07,04,06,08,12.70
2015,07,04,06,09,12.70
2015,07,04,06,10,12.70
2015,07,04,06,11,12.70
2015,07,04,06,12,12.70
2015,07,04,06,13,12.70
2015,07,04,06,14,12.80
2015,07,04,06,15,12.80
2015,07,04,06,16,12.80
2015,07,04,06,17,12.80
2015,07,04,06,18,12.80
2015,07,04,06,19,12.90
2015,07,04,06,20,12.90
2015,07,04,06,21,12.90
2015,07,04,06,22,12.90
2015,07,04,06,23,13.00
2015,07,04,06,24,13.00
2015,07,04,06,25,13.10
2015,07,04,06,26,13.10
2015,07,04,06,27,13.20
2015,07,04,06,28,13.20
2015,07,04,06,29,13.30
2015,07,04,06,30,13.30
2015,07,04,06,31,13.40
2015,07,04,06,32,13.50
2015,07,04,06,33,13.60
2015,07,04,06,34,13.70
2015,07,04,06,35,13.70
2015,07,04,06,36,13.80
2015,07,04,06,37,13.90
2015,07,04,06,38,14.00
2015,07,04,06,39,14.00
2015,07,04,06,40,14.10
2015,07,04,06,41,14.20
2015,07,04,06,42,14.30
2015,07,04,06,43,14.40
2015,07,04,06,44,14.50
2015,07,04,06,45,14.60
2015,07,04,06,46,14.70
2015,07,04,06,47,14.80
2015,07,04,06,48,14.90
2015,07,04,06,49,15.00
2015,07,04,06,50,15.10
2015,07,04,06,51,15.20
2015,07,04,06,52,15.30
2015,07,04,06,53,15.40
2015,07,04,06,54,15.50
2015,07,04,06,55,15.50
2015,07,04,06,56,15.60
2015,07,04,06,57,15.70
2015,07,04,06,58,15.80
2015,07,04,06,59,15.90
2015,07,04,07,00,16.00
2015,07,04,07,01,16.10
2015,07,04,07,02,16.20
2015,07,04,07,03,16.20
2015,07,04,07,04,16.30
2015,07,04,07,05,16.40
2015,07,04,07,06,16.50
2015,07,04,07,07,16.60
2015,07,04,07,08,16.70
2015,07,04,07,09,16.80
2015,07,04,07,10,16.80
2015,07,04,07,11,16.90
2015,07,04,07,12,17.00
2015,07,04,07,13,17.00
2015,07,04,07,14,17.10
2015,07,04,07,15,17.20
2015,07,04,07,16,17.30
2015,07,04,07,17,17.30
2015,07,04,07,18,17.40
2015,07,04,07,19,17.50
2015,07,04,07,20,17.60
2015,07,04,07,21,17.70
2015,07,04,07,22,17.80
2015,07,04,07,23,17.80
2015,07,04,07,24,17.90
2015,07,04,07,25,18.00
2015,07,04,07,26,18.00
2015,07,04,07,27,18.10
2015,07,04,07,28,18.20
2015,07,04,07,29,18.30
2015,07,04,07,30,18.30
2015,07,04,07,31,18.40
2015,07,04,07,32,18.40
2015,07,04,07,33,18.50
2015,07,04,07,34,18.60
2015,07,04,07,35,18.60
2015,07,04,07,36,18.70
2015,07,04,07,37,18.70
2015,07,04,07,38,18.80
2015,07,04,07,39,18.80
2015,07,04,07,40,18.80
2015,07,04,07,41,18.80
2015,07,04,07,42,18.90
2015,07,04,07,43,18.90
2015,07,04,07,44,18.90
2015,07,04,07,45,18.90
2015,07,04,07,46,18.90
2015,07,04,07,47,19.00
2015,07,04,07,48,19.00
2015,07,04,07,49,19.10
2015,07,04,07,50,19.10
2015,07,04,07,51,19.10
2015,07,04,07,52,19.10
2015,07,04,07,53,19.10
2015,07,04,07,54,19.10
2015,07,04,07,55,19.10
2015,07,04,07,56,19.00
2015,07,04,07,57,18.90
2015,07,04,07,58,18.90
2015,07,04,07,59,18.70
2015,07,04,08,00,18.60
2015,07,04,08,01,18.50
2015,07,04,08,02,18.40
2015,07,04,08,03,18.30
2015,07,04,08,04,18.20
2015,07,04,08,05,18.10
2015,07,04,08,06,18.10
2015,07,04,08,07,18.00
2015,07,04,08,08,17.90
2015,07,04,08,09,17.90
2015,07,04,08,10,17.90
2015,07,04,08,11,17.90
2015,07,04,08,12,17.90
2015,07,04,08,13,17.80
2015,07,04,08,14,17.80
2015,07,04,08,15,17.80
2015,07,04,08,16,17.80
2015,07,04,08,17,17.80
2015,07,04,08,18,17.80
2015,07,04,08,19,17.80
2015,07,04,08,20,17.80
2015,07,04,08,21,17.80
2015,07,04,08,22,17.80
2015,07,04,08,23,17.80
2015,07,04,08,24,17.80
2015,07,04,08,25,17.80
2015,07,04,08,26,17.80
2015,07,04,08,27,17.80
2015,07,04,08,28,17.90
2015,07,04,08,29,17.90
2015,07,04,08,30,17.90
2015,07,04,08,31,17.90
2015,07,04,08,32,17.90
2015,07,04,08,33,18.00
2015,07,04,08,34,18.00
2015,07,04,08,35,18.10
2015,07,04,08,36,18.10
2015,07,04,08,37,18.20
2015,07,04,08,38,18.30
2015,07,04,08,39,18.40
2015,07,04,08,40,18.50
2015,07,04,08,41,18.60
2015,07,04,08,42,18.70
2015,07,04,08,43,18.80
2015,07,04,08,44,18.90
2015,07,04,08,45,19.00
2015,07,04,08,46,19.10
2015,07,04,08,47,19.20
2015,07,04,08,48,19.30
2015,07,04,08,49,19.40
2015,07,04,08,50,19.40
2015,07,04,08,51,19.50
2015,07,04,08,52,19.60
2015,07,04,08,53,19.60
2015,07,04,08,54,19.60
2015,07,04,08,55,19.60
2015,07,04,08,56,19.60
2015,07,04,08,57,19.60
2015,07,04,08,58,19.60
2015,07,04,08,59,19.60
2015,07,04,09,00,19.50
2015,07,04,09,01,19.50
2015,07,04,09,02,19.50
2015,07,04,09,03,19.40
2015,07,04,09,04,19.40
2015,07,04,09,05,19.40
2015,07,04,09,06,19.40
2015,07,04,09,07,19.40
2015,07,04,09,08,19.40
2015,07,04,09,09,19.40
2015,07,04,09,10,19.40
2015,07,04,09,11,19.40
2015,07,04,09,12,19.40
2015,07,04,09,13,19.40
2015,07,04,09,14,19.40
2015,07,04,09,15,19.40
2015,07,04,09,16,19.40
2015,07,04,09,17,19.40
2015,07,04,09,18,19.40
2015,07,04,09,19,19.40
2015,07,04,09,20,19.50
2015,07,04,09,21,19.50
2015,07,04,09,22,19.50
2015,07,04,09,23,19.60
2015,07,04,09,24,19.60
2015,07,04,09,25,19.70
2015,07,04,09,26,19.70
2015,07,04,09,27,19.80
2015,07,04,09,28,19.80
2015,07,04,09,29,19.90
2015,07,04,09,30,19.90
2015,07,04,09,31,19.90
2015,07,04,09,32,20.00
2015,07,04,09,33,20.00
2015,07,04,09,34,20.00
2015,07,04,09,35,20.00
2015,07,04,09,36,20.00
2015,07,04,09,37,20.10
2015,07,04,09,38,20.10
2015,07,04,09,39,20.10
2015,07,04,09,40,20.20
2015,07,04,09,41,20.20
2015,07,04,09,42,20.20
2015,07,04,09,43,20.20
2015,07,04,09,44,20.30
2015,07,04,09,45,20.30
2015,07,04,09,46,20.30
2015,07,04,09,47,20.40
2015,07,04,09,48,20.40
2015,07,04,09,49,20.50
2015,07,04,09,50,20.50
2015,07,04,09,51,20.50
2015,07,04,09,52,20.60
2015,07,04,09,53,20.60
2015,07,04,09,54,20.60
2015,07,04,09,55,20.60
2015,07,04,09,56,20.60
2015,07,04,09,57,20.60
2015,07,04,09,58,20.60
2015,07,04,09,59,20.60
2015,07,04,10,00,20.50
2015,07,04,10,01,20.50
2015,07,04,10,02,20.40
2015,07,04,10,03,20.40
2015,07,04,10,04,20.40
2015,07,04,10,05,20.40
2015,07,04,10,06,20.30
2015,07,04,10,07,20.20
2015,07,04,10,08,20.20
2015,07,04,10,09,20.20
2015,07,04,10,10,20.10
2015,07,04,10,11,20.10
2015,07,04,10,12,20.10
2015,07,04,10,13,20.10
2015,07,04,10,14,20.20
2015,07,04,10,15,20.20
2015,07,04,10,16,20.20
2015,07,04,10,17,20.20
2015,07,04,10,18,20.20
2015,07,04,10,19,20.20
2015,07,04,10,20,20.20
2015,07,04,10,21,20.20
2015,07,04,10,22,20.20
2015,07,04,10,23,20.20
2015,07,04,10,24,20.20
2015,07,04,10,25,20.20
2015,07,04,10,26,20.10
2015,07,04,10,27,20.10
2015,07,04,10,28,20.10
2015,07,04,10,29,20.10
2015,07,04,10,30,20.00
2015,07,04,10,31,20.00
2015,07,04,10,32,20.00
2015,07,04,10,33,19.90
2015,07,04,10,34,19.90
2015,07,04,10,35,19.90
2015,07,04,10,36,19.90
2015,07,04,10,37,19.90
2015,07,04,10,38,19.90
2015,07,04,10,39,19.90
2015,07,04,10,40,19.90
2015,07,04,10,41,19.90
2015,07,04,10,42,20.00
2015,07,04,10,43,20.00
2015,07,04,10,44,20.10
2015,07,04,10,45,20.10
2015,07,04,10,46,20.20
2015,07,04,10,47,20.20
2015,07,04,10,48,20.20
2015,07,04,10,49,20.20
2015,07,04,10,50,20.20
2015,07,04,10,51,20.20
2015,07,04,10,52,20.20
2015,07,04,10,53,20.20
2015,07,04,10,54,20.10
2015,07,04,10,55,20.00
2015,07,04,10,56,20.00
2015,07,04,10,57,19.90
2015,07,04,10,58,19.90
2015,07,04,10,59,19.80
2015,07,04,11,00,19.80
2015,07,04,11,01,19.80
2015,07,04,11,02,19.90
2015,07,04,11,03,19.90
2015,07,04,11,04,19.90
2015,07,04,11,05,19.90
2015,07,04,11,06,20.00
2015,07,04,11,07,20.00
2015,07,04,11,08,20.00
2015,07,04,11,09,19.90
2015,07,04,11,10,19.90
2015,07,04,11,11,19.90
2015,07,04,11,12,19.80
2015,07,04,11,13,19.70
2015,07,04,11,14,19.60
2015,07,04,11,15,19.50
2015,07,04,11,16,19.40
2015,07,04,11,17,19.40
2015,07,04,11,18,19.40
2015,07,04,11,19,19.40
2015,07,04,11,20,19.40
2015,07,04,11,21,19.30
2015,07,04,11,22,19.30
2015,07,04,11,23,19.20
2015,07,04,11,24,19.20
2015,07,04,11,25,19.20
2015,07,04,11,26,19.20
2015,07,04,11,27,19.20
2015,07,04,11,28,19.30
2015,07,04,11,29,19.30
2015,07,04,11,30,19.30
2015,07,04,11,31,19.30
2015,07,04,11,32,19.40
2015,07,04,11,33,19.40
2015,07,04,11,34,19.40
2015,07,04,11,35,19.40
2015,07,04,11,36,19.50
2015,07,04,11,37,19.60
2015,07,04,11,38,19.60
2015,07,04,11,39,19.70
2015,07,04,11,40,19.70
2015,07,04,11,41,19.80
2015,07,04,11,42,19.90
2015,07,04,11,43,20.00
2015,07,04,11,44,20.10
2015,07,04,11,45,20.20
2015,07,04,11,46,20.30
2015,07,04,11,47,20.40
2015,07,04,11,48,20.40
2015,07,04,11,49,20.50
2015,07,04,11,50,20.60
2015,07,04,11,51,20.70
2015,07,04,11,52,20.80
2015,07,04,11,53,20.90
2015,07,04,11,54,21.10
2015,07,04,11,55,21.20
2015,07,04,11,56,21.40
2015,07,04,11,57,21.50
2015,07,04,11,58,21.60
2015,07,04,11,59,21.70
2015,07,04,12,00,21.80
2015,07,04,12,01,21.90
2015,07,04,12,02,22.10
2015,07,04,12,03,22.20
2015,07,04,12,04,22.30
2015,07,04,12,05,22.30
2015,07,04,12,06,22.40
2015,07,04,12,07,22.40
2015,07,04,12,08,22.50
2015,07,04,12,09,22.60
2015,07,04,12,10,22.60
2015,07,04,12,11,22.70
2015,07,04,12,12,22.80
2015,07,04,12,13,22.80
2015,07,04,12,14,22.80
2015,07,04,12,15,22.90
2015,07,04,12,16,22.90
2015,07,04,12,17,23.00
2015,07,04,12,18,23.10
2015,07,04,12,19,23.10
2015,07,04,12,20,23.20
2015,07,04,12,21,23.20
2015,07,04,12,22,23.30
2015,07,04,12,23,23.30
2015,07,04,12,24,23.40
2015,07,04,12,25,23.40
2015,07,04,12,26,23.50
2015,07,04,12,27,23.60
2015,07,04,12,28,23.60
2015,07,04,12,29,23.70
2015,07,04,12,30,23.70
2015,07,04,12,31,23.70
2015,07,04,12,32,23.70
2015,07,04,12,33,23.70
2015,07,04,12,34,23.80
2015,07,04,12,35,23.80
2015,07,04,12,36,23.80
2015,07,04,12,37,23.80
2015,07,04,12,38,23.80
2015,07,04,12,39,23.90
2015,07,04,12,40,23.90
2015,07,04,12,41,24.00
2015,07,04,12,42,24.00
2015,07,04,12,43,24.10
2015,07,04,12,44,24.10
2015,07,04,12,45,24.20
2015,07,04,12,46,24.20
2015,07,04,12,47,24.20
2015,07,04,12,48,24.30
2015,07,04,12,49,24.30
2015,07,04,12,50,24.40
2015,07,04,12,51,24.40
2015,07,04,12,52,24.50
2015,07,04,12,53,24.60
2015,07,04,12,54,24.60
2015,07,04,12,55,24.60
2015,07,04,12,56,24.70
2015,07,04,12,57,24.70
2015,07,04,12,58,24.70
2015,07,04,12,59,24.70
2015,07,04,13,00,24.70
2015,07,04,13,01,24.70
2015,07,04,13,02,24.70
2015,07,04,13,03,24.70
2015,07,04,13,04,24.70
2015,07,04,13,05,24.70
2015,07,04,13,06,24.70
2015,07,04,13,07,24.70
2015,07,04,13,08,24.80
2015,07,04,13,09,24.80
2015,07,04,13,10,24.80
2015,07,04,13,11,24.90
2015,07,04,13,12,24.90
2015,07,04,13,13,25.00
2015,07,04,13,14,25.00
2015,07,04,13,15,24.90
2015,07,04,13,16,24.80
2015,07,04,13,17,24.70
2015,07,04,13,18,24.60
2015,07,04,13,19,24.50
2015,07,04,13,20,24.40
2015,07,04,13,21,24.30
2015,07,04,13,22,24.30
2015,07,04,13,23,24.20
2015,07,04,13,24,24.10
2015,07,04,13,25,24.00
2015,07,04,13,26,24.00
2015,07,04,13,27,23.90
2015,07,04,13,28,23.80
2015,07,04,13,29,23.70
2015,07,04,13,30,23.70
2015,07,04,13,31,23.60
2015,07,04,13,32,23.60
2015,07,04,13,33,23.60
2015,07,04,13,34,23.60
2015,07,04,13,35,23.60
2015,07,04,13,36,23.60
2015,07,04,13,37,23.60
2015,07,04,13,38,23.70
2015,07,04,13,39,23.70
2015,07,04,13,40,23.80
2015,07,04,13,41,23.80
2015,07,04,13,42,23.80
2015,07,04,13,43,23.90
2015,07,04,13,44,23.90
2015,07,04,13,45,23.90
2015,07,04,13,46,23.90
2015,07,04,13,47,23.90
2015,07,04,13,48,23.80
2015,07,04,13,49,23.80
2015,07,04,13,50,23.80
2015,07,04,13,51,23.70
2015,07,04,13,52,23.60
2015,07,04,13,53,23.50
2015,07,04,13,54,23.40
2015,07,04,13,55,23.30
2015,07,04,13,56,23.20
2015,07,04,13,57,23.20
2015,07,04,13,58,23.20
2015,07,04,13,59,23.20
2015,07,04,14,00,23.20
2015,07,04,14,01,23.20
2015,07,04,14,02,23.10
2015,07,04,14,03,23.10
2015,07,04,14,04,23.10
2015,07,04,14,05,23.10
2015,07,04,14,06,23.10
2015,07,04,14,07,23.10
2015,07,04,14,08,23.10
2015,07,04,14,09,23.00
2015,07,04,14,10,22.90
2015,07,04,14,11,22.70
2015,07,04,14,12,22.60
2015,07,04,14,13,22.50
2015,07,04,14,14,22.40
2015,07,04,14,15,22.20
2015,07,04,14,16,22.10
2015,07,04,14,17,22.00
2015,07,04,14,18,22.00
2015,07,04,14,19,21.90
2015,07,04,14,20,21.90
2015,07,04,14,21,21.90
2015,07,04,14,22,21.90
2015,07,04,14,23,21.90
2015,07,04,14,24,21.90
2015,07,04,14,25,21.90
2015,07,04,14,26,21.90
2015,07,04,14,27,21.90
2015,07,04,14,28,21.80
2015,07,04,14,29,21.80
2015,07,04,14,30,21.70
2015,07,04,14,31,21.70
2015,07,04,14,32,21.60
2015,07,04,14,33,21.60
2015,07,04,14,34,21.60
2015,07,04,14,35,21.60
2015,07,04,14,36,21.60
2015,07,04,14,37,21.70
2015,07,04,14,38,21.70
2015,07,04,14,39,21.80
2015,07,04,14,40,21.90
2015,07,04,14,41,21.90
2015,07,04,14,42,22.00
2015,07,04,14,43,22.10
2015,07,04,14,44,22.10
2015,07,04,14,45,22.10
2015,07,04,14,46,22.20
2015,07,04,14,47,22.20
2015,07,04,14,48,22.20
2015,07,04,14,49,22.20
2015,07,04,14,50,22.30
2015,07,04,14,51,22.30
2015,07,04,14,52,22.30
2015,07,04,14,53,22.30
2015,07,04,14,54,22.20
2015,07,04,14,55,22.20
2015,07,04,14,56,22.20
2015,07,04,14,57,22.10
2015,07,04,14,58,22.00
2015,07,04,14,59,22.00
2015,07,04,15,00,21.90
2015,07,04,15,01,21.90
2015,07,04,15,02,21.80
2015,07,04,15,03,21.70
2015,07,04,15,04,21.70
2015,07,04,15,05,21.60
2015,07,04,15,06,21.50
2015,07,04,15,07,21.50
2015,07,04,15,08,21.50
2015,07,04,15,09,21.50
2015,07,04,15,10,21.50
2015,07,04,15,11,21.50
2015,07,04,15,12,21.50
2015,07,04,15,13,21.50
2015,07,04,15,14,21.40
2015,07,04,15,15,21.40
2015,07,04,15,16,21.30
2015,07,04,15,17,21.30
2015,07,04,15,18,21.30
2015,07,04,15,19,21.30
2015,07,04,15,20,21.30
2015,07,04,15,21,21.30
2015,07,04,15,22,21.30
2015,07,04,15,23,21.30
2015,07,04,15,24,21.40
2015,07,04,15,25,21.50
2015,07,04,15,26,21.60
2015,07,04,15,27,21.70
2015,07,04,15,28,21.80
2015,07,04,15,29,21.90
2015,07,04,15,30,21.90
2015,07,04,15,31,21.90
2015,07,04,15,32,21.90
2015,07,04,15,33,21.90
2015,07,04,15,34,21.90
2015,07,04,15,35,21.90
2015,07,04,15,36,21.90
2015,07,04,15,37,21.90
2015,07,04,15,38,21.90
2015,07,04,15,39,22.00
2015,07,04,15,40,22.10
2015,07,04,15,41,22.10
2015,07,04,15,42,22.10
2015,07,04,15,43,22.20
2015,07,04,15,44,22.20
2015,07,04,15,45,22.20
2015,07,04,15,46,22.20
2015,07,04,15,47,22.20
2015,07,04,15,48,22.30
2015,07,04,15,49,22.30
2015,07,04,15,50,22.30
2015,07,04,15,51,22.30
2015,07,04,15,52,22.30
2015,07,04,15,53,22.40
2015,07,04,15,54,22.40
2015,07,04,15,55,22.40
2015,07,04,15,56,22.50
2015,07,04,15,57,22.50
2015,07,04,15,58,22.60
2015,07,04,15,59,22.70
2015,07,04,16,00,22.80
2015,07,04,16,01,22.90
2015,07,04,16,02,23.00
2015,07,04,16,03,23.10
2015,07,04,16,04,23.20
2015,07,04,16,05,23.10
2015,07,04,16,06,23.10
2015,07,04,16,07,23.00
2015,07,04,16,08,22.90
2015,07,04,16,09,22.80
2015,07,04,16,10,22.80
2015,07,04,16,11,22.80
2015,07,04,16,12,22.80
2015,07,04,16,13,22.80
2015,07,04,16,14,22.90
2015,07,04,16,15,23.00
2015,07,04,16,16,23.10
2015,07,04,16,17,23.10
2015,07,04,16,18,23.20
2015,07,04,16,19,23.20
2015,07,04,16,20,23.30
2015,07,04,16,21,23.40
2015,07,04,16,22,23.50
2015,07,04,16,23,23.60
2015,07,04,16,24,23.60
2015,07,04,16,25,23.70
2015,07,04,16,26,23.80
2015,07,04,16,27,23.90
2015,07,04,16,28,23.90
2015,07,04,16,29,23.90
2015,07,04,16,30,23.90
2015,07,04,16,31,23.90
2015,07,04,16,32,23.80
2015,07,04,16,33,23.80
2015,07,04,16,34,23.70
2015,07,04,16,35,23.70
2015,07,04,16,36,23.60
2015,07,04,16,37,23.60
2015,07,04,16,38,23.50
2015,07,04,16,39,23.40
2015,07,04,16,40,23.40
2015,07,04,16,41,23.40
2015,07,04,16,42,23.40
2015,07,04,16,43,23.40
2015,07,04,16,44,23.40
2015,07,04,16,45,23.50
2015,07,04,16,46,23.50
2015,07,04,16,47,23.40
2015,07,04,16,48,23.40
2015,07,04,16,49,23.30
2015,07,04,16,50,23.30
2015,07,04,16,51,23.30
2015,07,04,16,52,23.20
2015,07,04,16,53,23.20
2015,07,04,16,54,23.20
2015,07,04,16,55,23.20
2015,07,04,16,56,23.20
2015,07,04,16,57,23.20
2015,07,04,16,58,23.20
2015,07,04,16,59,23.20
2015,07,04,17,00,23.20
2015,07,04,17,01,23.20
2015,07,04,17,02,23.20
2015,07,04,17,03,23.20
2015,07,04,17,04,23.30
2015,07,04,17,05,23.30
2015,07,04,17,06,23.20
2015,07,04,17,07,23.20
2015,07,04,17,08,23.20
2015,07,04,17,09,23.10
2015,07,04,17,10,23.10
2015,07,04,17,11,23.00
2015,07,04,17,12,22.90
2015,07,04,17,13,22.90
2015,07,04,17,14,22.80
2015,07,04,17,15,22.80
2015,07,04,17,16,22.70
2015,07,04,17,17,22.70
2015,07,04,17,18,22.70
2015,07,04,17,19,22.70